Zurück zum Katalog

SL-8 R/B

AktivPO
NORAD 18161·ROCKET BODY·🇷🇺 Russia

Gestartet Jul 6, 1987 von Plesetsk Cosmodrome

Loading…

Nächste Überflüge (nächste 24 Stunden)

TLE

AktuellSource: Space-Track

Epoche: Sep 13, 2026, 22:45 UTC

1 18161U 87057B   26256.94809931  .00000153  00000-0  13840-3 0  9996
2 18161  82.9290  78.9400 0030150 222.4027 302.5132 13.77453962948593

Verfolge SL-8 R/B in Echtzeit mit AllMySat

Download on the App Store